DMSP 5D-2 F13 DEB, 40509

Orbit data source: Space-Track

DMSP 5D-2 F13 DEB, 40509 is space debris in SSO originally from a launch on Fri, 24 Mar 1995 UTC launched from the Air Force Western Test Range (AFWTR). Debris objects in space refer to the collection of defunct objects orbiting the Earth. Examples of debris include non-operational satellites, rocket bodies, and fragments generated from explosions, collisions, or faulty payload assembly.

Loading next visibility...
Identifier
40509, 1995-015CV
Orbit
SSO
Last TLE update
4 days ago
Origin
Manufacturer
Unknown
Mission
Spacecraft
Bus & Motor
Unknown
Mass
Unknown
Launch date (UTC)
1995-03-24 (30 years ago)
Launch vehicle
Unknown
Launch site
Air Force Western Test Range (AFWTR)
Object type
Payload
Rocket body
Debris
Shape & HBR
Unknown
Radar Cross Section
Small (<0.1 m²)

Expand to show TLE details & history

TLE from 4 days ago
0 DMSP 5D-2 F13 DEB
1 40509U 95015CV  25187.98722234  .00000342  00000-0  17265-3 0  9991
2 40509  98.6621 205.2228 0022125 255.2936 104.5789 14.22466819533566
Epoch: 2025-07-06T23:41Z
TLE epoch observation values (Epoch: 2025-07-06T23:41:36.01Z)
Latitude
-0.00007°
Longitude
-75.38026°
Altitude
823.982 km
Speed
7.439 km/s
True Right ascension
13h 40m 53s
True Declination
0° 00' 00"
Sunlit
Object was in daylight at epoch
Visualization orbit readout
Latitude
48.79485°
Longitude
118.55115°
Altitude
830.87 km
Speed
7.439 km/s
Apparent Right ascension
01h 41m 35s
Apparent Declination
8° 03' 48"
Sunlit
Object is in daylight
Visualization observer readout
Local Sidereal Time
12:48:11
Azimuth
342.515° N
Elevation
-40.457°
Doppler factor
1
Orbital elements
Apogee altitude
830.088 km
Perigee altitude
798.262 km
Semi-major axis
7,192.312 km
Eccentricity
0.00221
Inclination
98.6621°
RAAN
205.2228°
Arg. of periapsis
255.2936°
True anomaly
Unknown
Mean anomaly
104.5789°
Eccentric anomaly
Unknown
Mean motion
3.55828 °/min
Orbital period
101.17 mins
BSTAR
0.00017265
Loading maneuver chart data...
Loading SW <> Apogee altitude chart data...

DMSP 5D-2 F13 DEB Visibility forecast

Observer location: undefined°, undefined°

Span
Click to sort rows by Start time (UTC) header in descending order
Start Az.
Max El. time (UTC)
Max El. Az.
Max El.
End time (UTC)
End Az.
9 mins2025-07-11 01:42:56.929Z193.435° SSW2025-07-11 01:46:56.929Z247.767° W33.419°2025-07-11 01:51:56.929Z329.728° NNW
9 mins2025-07-11 14:00:56.929Z16.526° NNE2025-07-11 14:04:56.929Z122.607° SE44.688°2025-07-11 14:09:56.929Z191.488° SSW
4 mins2025-07-11 23:44:56.929Z78.436° E2025-07-11 23:45:56.929Z65.483° ENE15.88°2025-07-11 23:48:56.929Z28.993° NE
|